Location: Carrer del Canonge
(41.4901°N, 2.2931°E)
Time: 13:33:48
(UTC+00:00)

Lacrosse 5 rocket - Pass Details

Date: 18 September 2020
Orbit: 460 x 636 km, 57.0° (Epoch: 29 October)

Event Time Altitude Azimuth Distance (km) Brightness Sun altitude
Rises 19:46:10 0° 295° (WNW) 2,777 6.5 -21.2°
Reaches altitude 10° 19:49:50 10° 327° (NNW) 1,925 4.8 -21.8°
Maximum altitude 19:51:30 12° 350° (N) 1,820 4.4 -22.1°
Drops below altitude 10° 19:53:13 10° 13° (NNE) 1,963 4.2 -22.4°
Enters shadow 19:55:09 - 32° (NNE) 2,362 4.5 -22.8°
